Location: Capelle
(50.3413°N, 1.9974°E)
Time: 23:49:39
(UTC+00:00)

ATLAS 3B R/B - Pass Details

Date: 12 January 2026
Orbit: 936 x 1257 km, 63.8° (Epoch: 17 February)

Event Time Altitude Azimuth Distance (km) Brightness Sun altitude
Rises 17:43:36 0° 258° (WSW) 4,116 7.7 -13.8°
Reaches altitude 10° 17:46:32 10° 265° (W) 3,185 6.5 -14.3°
Maximum altitude 17:53:47 41° 334° (NNW) 1,744 3.9 -15.4°
Enters shadow 18:00:07 14° 40° (NE) 2,917 4.5 -16.4°
